[[{"header":{"parameterUnit":"m.s-1","parameterCategory":1,"la1":30.2991,"la2":30.254,"lo1":-89.0895,"lo2":-89.0444,"dy":0.0017,"dx":0.0017,"nx":28,"ny":28,"refTime":"2024-02-28T09:00:00:Z","depth":0,"parameterNumber":2,"parameterNumberName":"U-component_of_WINDS"},"data":[0,0,0,0,0,0,0,0,0,0,0,0,0,0,0,0,0,0,0,0,0,0,0,0,0,0,0,0,0,0,0,0,0,0,0,0,0,0,0,0,0,0,0,0,0,0,0,0,0,0,0,0,0,0,0,0,0,0,-5.4222,-5.4222,0,-5.4234,-5.4234,-5.4234,-5.4093,-5.4089,-5.4085,-5.4082,-5.4095,-5.4099,-5.4102,0,0,0,0,0,0,0,0,0,0,0,0,0,-5.4077,-5.408,-5.4222,-5.4222,-5.4222,-5.4234,-5.4234,-5.4234,-5.4094,-5.4089,-5.4084,-5.408,-5.4093,-5.4098,-5.4103,0,0,0,0,0,0,0,0,0,0,0,0,0,-5.412,-5.4082,-5.4222,-5.4153,-5.4147,-5.4234,-5.4234,-5.4234,-5.4095,-5.4089,-5.4083,-5.4078,-5.4092,-5.4098,-5.4103,-5.4256,0,0,-5.4122,-5.4124,0,0,0,0,0,0,0,0,-5.4118,-5.4125,-5.4163,-5.4158,-5.4152,-5.4156,-5.4187,-5.4242,-5.4096,-5.4115,-5.4082,-5.4075,-5.412,-5.4123,-5.4138,-5.4257,-5.4257,-5.4122,-5.4126,-5.4128,-5.413,0,0,0,0,0,0,0,-5.4115,-5.4124,-5.4226,-5.4164,-5.4157,-5.4122,-5.4122,-5.4197,-5.415,-5.4113,-5.4103,-5.4106,-5.4115,-5.4133,-5.4137,-5.4257,-5.4122,-5.4127,-5.4131,-5.4133,-5.4502,-5.4508,0,0,0,0,0,0,-5.4121,-5.4122,-5.4226,-5.4227,-5.412,-5.4129,-5.4129,-5.4161,-5.4148,-5.4141,-5.4111,-5.4099,-5.4125,-5.4131,-5.4137,-5.4315,-5.4128,-5.4134,-5.4137,-5.4495,-5.4503,-5.451,0,0,0,0,0,0,-5.4118,-5.4132,-5.4226,-5.4172,-5.4181,-5.4138,-5.4175,-5.4164,-5.4181,-5.4147,-5.4138,-5.4137,-5.4121,-5.4129,-5.4227,-5.4314,-5.4136,-5.4142,-5.4488,-5.4498,-5.4506,-5.4673,0,0,0,0,0,0,-5.4115,-5.4132,-5.4189,-5.4174,-5.4185,-5.4316,-5.418,-5.4168,-5.4191,-5.4176,-5.4169,-5.4163,-5.4117,-5.4219,-5.4233,-5.4319,-5.4146,-5.448,-5.4492,-5.4503,-5.466,-5.4687,-5.4711,0,0,0,0,0,-5.411,-5.4236,-5.4193,-5.4206,-5.4256,-5.4322,-5.4327,-5.4272,-5.4199,-5.4256,-5.4235,-5.4163,-5.4302,-5.4231,-5.4245,-5.4334,-5.4475,-5.4489,-5.4503,-5.4649,-5.4682,-5.471,0,0,0,0,0,0,-5.4262,-5.4233,-5.4185,-5.4309,-5.4319,-5.4298,-5.4369,-5.4309,-5.434,-5.4325,-5.4256,-5.4255,-5.4366,-5.4359,-5.428,-5.4481,-5.4375,-5.4393,-5.4481,-5.4513,-5.4538,-5.4537,-5.4151,0,0,0,0,0,-5.431,-5.4366,-5.4337,-5.4449,-5.4457,-5.4413,-5.4439,-5.4396,-5.4403,-5.4407,-5.4392,-5.4402,-5.4448,-5.448,-5.452,-5.4658,-5.4655,-5.4726,-5.4751,-5.4772,-5.4789,-5.4862,-5.4893,-5.4556,-5.4556,-5.4556,0,0,-5.441,-5.44,-5.444,-5.448,-5.4482,-5.4542,-5.4417,-5.4485,-5.4529,-5.4417,-5.4509,-5.4499,-5.4506,-5.4625,-5.4677,-5.4623,-5.4881,-5.479,-5.4807,-5.4812,-5.4879,-5.4911,-5.494,-5.4565,-5.4564,-5.4562,0,0,-5.4622,-5.4621,-5.4714,-5.472,-5.4725,-5.4694,-5.4717,-5.4705,-5.4694,-5.4785,-5.4703,-5.4753,-5.4834,-5.4842,-5.4857,-5.5072,-5.5008,-5.5087,-5.522,-5.5292,-5.5319,-5.5342,-5.542,-5.5448,-5.5103,-5.5104,-5.5104,0,-5.4746,-5.4832,-5.477,-5.4844,-5.4864,-5.4766,-5.486,-5.4868,-5.4887,-5.4903,-5.4842,-5.4941,-5.4939,-5.5059,-5.5111,-5.5126,-5.515,-5.5088,-5.532,-5.5343,-5.5363,-5.5437,-5.5466,-5.5114,-5.5112,-5.5111,-5.5111,0,-5.4984,-5.5046,-5.5121,-5.5141,-5.5169,-5.5254,-5.5204,-5.524,-5.5195,-5.5171,-5.5265,-5.5259,-5.5296,-5.5321,-5.5277,-5.5435,-5.5402,-5.5332,-5.5224,-5.5406,-5.5474,-5.5502,-5.5128,-5.5124,-5.5121,-5.5119,0,0,-5.5294,-5.5279,-5.5308,-5.5316,-5.5314,-5.536,-5.544,-5.5476,-5.5509,-5.5525,-5.559,-5.566,-5.5595,-5.5612,-5.5568,-5.5631,-5.5803,-5.5553,-5.5552,-5.5601,-5.5978,-5.6032,-5.6065,-5.576,-5.5765,-5.5769,-5.5978,0,-5.5502,-5.5637,-5.5583,-5.5723,-5.5779,-5.5686,-5.5755,-5.5762,-5.5741,-5.5786,-5.5762,-5.5814,-5.5724,-5.5734,-5.5792,-5.577,-5.5878,-5.5754,-5.5821,-5.5824,-5.5823,-5.6101,-5.6157,-5.6355,-5.6004,-5.6008,-5.6011,0,-5.5762,-5.5789,-5.5935,-5.5923,-5.5945,-5.6008,-5.6037,-5.6081,-5.6087,-5.6067,-5.6086,-5.6028,-5.6105,-5.5998,-5.6103,-5.602,-5.6044,-5.6037,-5.6044,-5.6049,-5.593,-5.6114,-5.6417,-5.6447,-5.6052,-5.6049,-5.6046,0,-5.5975,-5.6047,-5.6144,-5.6153,-5.6142,-5.6189,-5.6187,-5.6186,-5.6212,-5.6237,-5.6253,-5.6287,-5.6306,-5.6334,-5.6287,-5.6213,-5.64,-5.6288,-5.6386,-5.6388,-5.6431,-5.6429,-5.6743,-5.6445,-5.6444,-5.6444,-5.6443,0,-5.6213,-5.6307,-5.6239,-5.6299,-5.64,-5.6337,-5.644,-5.6427,-5.6427,-5.6483,-5.6403,-5.6457,-5.6391,-5.6438,-5.6401,-5.6495,-5.6504,-5.6491,-5.648,-5.6499,-5.6501,-5.6514,-5.65,-5.6452,-5.645,-5.6448,-5.6447,0,-5.6469,-5.6427,-5.6527,-5.6508,-5.6505,-5.6581,-5.6565,-5.6619,-5.6593,-5.6664,-5.6677,-5.6636,-5.6688,-5.6643,-5.6693,-5.6668,-5.6793,-5.6762,-5.6791,-5.6783,-5.6885,-5.6876,-5.7219,-5.7261,-5.6935,-5.6938,-5.6941,0,-5.6624,-5.6694,-5.6683,-5.6714,-5.6717,-5.6768,-5.6794,-5.6734,-5.6764,-5.6775,-5.6829,-5.6874,-5.6906,-5.6994,-5.6968,-5.7006,-5.6976,-5.7093,-5.6981,-5.6998,-5.6979,-5.6976,-5.6983,-5.7117,-5.7121,-5.7124,-5.7126,0,-5.6905,-5.6881,-5.6921,-5.6954,-5.6987,-5.701,-5.7027,-5.7057,-5.6996,-5.7033,-5.7085,-5.7111,-5.7161,-5.7207,-5.7237,-5.7234,-5.7171,-5.7162,-5.7186,-5.7207,-5.7222,-5.7216,-5.6855,-5.7154,-5.7151,-5.7149,-5.7148,-5.7147,-5.7116,-5.7173,-5.7175,-5.7222,-5.7228,-5.7246,-5.7296,-5.7276,-5.7318,-5.7355,-5.7316,-5.738,-5.7383,-5.7416,-5.7421,-5.747,-5.7421,-5.7457,-5.7466,-5.7476,-5.7491,-5.7213,-5.7475,-5.7474,-5.7473,-5.7472,-5.7471,0,-5.7393,-5.7389,-5.7433,-5.7459,-5.7497,-5.7433,-5.7448,-5.7484,-5.754,-5.7549,-5.7583,-5.7643,-5.7686,-5.7664,-5.7702,-5.7746,-5.7718,-5.7758,-5.7755,-5.7755,-5.7532,-5.7507,-5.778,-5.778,-5.778,-5.778,-5.778,-5.778,-5.7542,-5.7637,-5.7613,-5.7709,-5.7704,-5.7766,-5.778,-5.7796,-5.7802,-5.7873,-5.7909,-5.7894,-5.789,-5.7927,-5.7965,-5.7957,-5.7975,-5.8026,-5.8009,-5.7801,-5.7771,-5.7742,-5.7718,-5.8031,-5.8031,-5.8227,-5.8229,-5.823]},{"header":{"parameterUnit":"m.s-1","parameterCategory":1,"la1":30.2991,"la2":30.254,"lo1":-89.0895,"lo2":-89.0444,"dy":0.0017,"dx":0.0017,"nx":28,"ny":28,"refTime":"2024-02-28T09:00:00:Z","depth":0,"parameterNumber":3,"parameterNumberName":"V-component_of_WINDS"},"data":[0,0,0,0,0,0,0,0,0,0,0,0,0,0,0,0,0,0,0,0,0,0,0,0,0,0,0,0,0,0,0,0,0,0,0,0,0,0,0,0,0,0,0,0,0,0,0,0,0,0,0,0,0,0,0,0,0,0,-6.764,-6.7641,0,-6.7726,-6.7727,-6.7728,-6.7646,-6.7643,-6.764,-6.7637,-6.7719,-6.7724,-6.7729,0,0,0,0,0,0,0,0,0,0,0,0,0,-6.74,-6.7405,-6.764,-6.7641,-6.7643,-6.7726,-6.7727,-6.7728,-6.7647,-6.7643,-6.7639,-6.7635,-6.7717,-6.7723,-6.7729,0,0,0,0,0,0,0,0,0,0,0,0,0,-6.7497,-6.7407,-6.764,-6.7612,-6.7611,-6.7725,-6.7727,-6.7728,-6.7648,-6.7643,-6.7638,-6.7633,-6.7715,-6.7722,-6.773,-6.7875,0,0,-6.7754,-6.7757,0,0,0,0,0,0,0,0,-6.7492,-6.7506,-6.7615,-6.7614,-6.7613,-6.7671,-6.7672,-6.7777,-6.7649,-6.7633,-6.7637,-6.7631,-6.7706,-6.7714,-6.7741,-6.7879,-6.7882,-6.7754,-6.7759,-6.7763,-6.7765,0,0,0,0,0,0,0,-6.7485,-6.7502,-6.7674,-6.7617,-6.7615,-6.7593,-6.7602,-6.7692,-6.7696,-6.7634,-6.7629,-6.764,-6.7704,-6.7733,-6.7742,-6.7884,-6.7754,-6.7761,-6.7766,-6.7769,-6.8143,-6.8148,0,0,0,0,0,0,-6.7482,-6.7497,-6.7671,-6.7676,-6.7539,-6.7601,-6.7611,-6.7657,-6.7695,-6.7696,-6.7644,-6.7636,-6.7723,-6.7733,-6.7745,-6.7916,-6.7762,-6.777,-6.7774,-6.8137,-6.8144,-6.8149,0,0,0,0,0,0,-6.7477,-6.7499,-6.7668,-6.7585,-6.7605,-6.7611,-6.7663,-6.7661,-6.769,-6.7702,-6.7702,-6.7674,-6.7719,-6.7734,-6.7843,-6.7918,-6.7773,-6.778,-6.8131,-6.8139,-6.8147,-6.826,0,0,0,0,0,0,-6.7471,-6.7497,-6.7554,-6.7587,-6.761,-6.7767,-6.7668,-6.7666,-6.7704,-6.7694,-6.773,-6.7731,-6.7716,-6.7832,-6.7851,-6.7926,-6.7786,-6.8124,-6.8135,-6.8144,-6.825,-6.8271,-6.8289,0,0,0,0,0,-6.7463,-6.7582,-6.7558,-6.7579,-6.7681,-6.7772,-6.7784,-6.7767,-6.7711,-6.7767,-6.7774,-6.773,-6.7906,-6.7844,-6.7864,-6.7943,-6.812,-6.8132,-6.8143,-6.8241,-6.8267,-6.8289,0,0,0,0,0,0,-6.7556,-6.7586,-6.7559,-6.7693,-6.7731,-6.7758,-6.7828,-6.7795,-6.7849,-6.7837,-6.7811,-6.782,-6.7936,-6.795,-6.788,-6.8084,-6.8003,-6.802,-6.8071,-6.8096,-6.8115,-6.8109,-6.7793,0,0,0,0,0,-6.7593,-6.7666,-6.7687,-6.7803,-6.7823,-6.7823,-6.7862,-6.7845,-6.7882,-6.7897,-6.7913,-6.7949,-6.8012,-6.8054,-6.8114,-6.8251,-6.8257,-6.8315,-6.8335,-6.8351,-6.8365,-6.8438,-6.8464,-6.8188,-6.8188,-6.8188,0,0,-6.7668,-6.7693,-6.7741,-6.7822,-6.7849,-6.7924,-6.7837,-6.7919,-6.7973,-6.7909,-6.8014,-6.8026,-6.8064,-6.8189,-6.8244,-6.8204,-6.8442,-6.8366,-6.8379,-6.8384,-6.8453,-6.8479,-6.8502,-6.8196,-6.8195,-6.8194,0,0,-6.7844,-6.7871,-6.797,-6.8,-6.8042,-6.8041,-6.8065,-6.8097,-6.8104,-6.8209,-6.8162,-6.8224,-6.8335,-6.8364,-6.8393,-6.8578,-6.8539,-6.8598,-6.8701,-6.8772,-6.8793,-6.8812,-6.8878,-6.8901,-6.8612,-6.8613,-6.8613,0,-6.7932,-6.8044,-6.8025,-6.8111,-6.8147,-6.8094,-6.8193,-6.8222,-6.8281,-6.8306,-6.8261,-6.8398,-6.842,-6.8549,-6.8594,-6.862,-6.8645,-6.8594,-6.8792,-6.8811,-6.8828,-6.889,-6.8915,-6.8619,-6.8619,-6.8618,-6.8617,0,-6.8149,-6.8228,-6.8302,-6.8363,-6.8407,-6.8499,-6.8492,-6.8539,-6.8518,-6.8521,-6.8627,-6.8652,-6.8715,-6.8744,-6.8724,-6.8871,-6.8844,-6.8796,-6.8715,-6.8862,-6.892,-6.8943,-6.8629,-6.8627,-6.8625,-6.8623,0,0,-6.8387,-6.8436,-6.8464,-6.849,-6.8533,-6.8592,-6.868,-6.8743,-6.8783,-6.8825,-6.8897,-6.8992,-6.8947,-6.898,-6.8963,-6.9025,-6.9169,-6.8969,-6.8969,-6.9005,-6.933,-6.9366,-6.9394,-6.9143,-6.9147,-6.9151,-6.9327,0,-6.8564,-6.872,-6.8705,-6.8853,-6.8923,-6.8873,-6.895,-6.8983,-6.8988,-6.9047,-6.905,-6.9117,-6.9054,-6.9074,-6.9133,-6.9139,-6.9234,-6.9126,-6.9208,-6.9211,-6.92,-6.9424,-6.9463,-6.9628,-6.9349,-6.9353,-6.9356,0,-6.8791,-6.8843,-6.8999,-6.903,-6.9059,-6.9129,-6.9184,-6.9242,-6.9278,-6.9276,-6.9313,-6.9285,-6.9371,-6.9288,-6.9405,-6.9332,-6.9365,-6.9372,-6.9378,-6.9385,-6.9293,-6.9437,-6.968,-6.9705,-6.9391,-6.9388,-6.9386,0,-6.8948,-6.9057,-6.9164,-6.9188,-6.9227,-6.9277,-6.9295,-6.9326,-6.9364,-6.9412,-6.9436,-6.9493,-6.9524,-6.9568,-6.9554,-6.9495,-6.9674,-6.959,-6.9674,-6.9674,-6.9714,-6.9712,-6.9966,-6.9736,-6.9735,-6.9735,-6.9734,0,-6.9147,-6.9244,-6.9235,-6.93,-6.9406,-6.9387,-6.9491,-6.9503,-6.9531,-6.9596,-6.9555,-6.9616,-6.9595,-6.9654,-6.9644,-6.9742,-6.9756,-6.9756,-6.9752,-6.976,-6.976,-6.9781,-6.9769,-6.9741,-6.974,-6.9738,-6.9737,0,-6.9341,-6.9339,-6.9452,-6.948,-6.9489,-6.9566,-6.9588,-6.9649,-6.965,-6.9733,-6.9751,-6.9752,-6.982,-6.981,-6.9886,-6.9878,-7.0001,-6.9983,-6.9989,-6.9985,-7.0069,-7.0061,-7.0346,-7.0381,-7.0128,-7.0131,-7.0133,0,-6.9468,-6.9542,-6.9578,-6.962,-6.9642,-6.9709,-6.9748,-6.9731,-6.9773,-6.9819,-6.9873,-6.9938,-6.9989,-7.0099,-7.0105,-7.0162,-7.0145,-7.024,-7.0153,-7.0158,-7.0145,-7.0141,-7.0148,-7.0258,-7.026,-7.0263,-7.0265,0,-6.9694,-6.9689,-6.9748,-6.9808,-6.9856,-6.9901,-6.9942,-6.9978,-6.9963,-7.0012,-7.0082,-7.0122,-7.0199,-7.0263,-7.0316,-7.0332,-7.0296,-7.0292,-7.0314,-7.0323,-7.0324,-7.0324,-7.0036,-7.0286,-7.0284,-7.0282,-7.0281,-7.028,-6.9858,-6.992,-6.9956,-7.0023,-7.0052,-7.009,-7.0149,-7.0157,-7.0216,-7.0279,-7.0264,-7.0343,-7.0374,-7.0442,-7.0464,-7.0523,-7.0488,-7.052,-7.0529,-7.0537,-7.0547,-7.0315,-7.0533,-7.0532,-7.0532,-7.0531,-7.0531,0,-7.008,-7.0101,-7.0163,-7.0222,-7.0274,-7.0237,-7.0279,-7.0325,-7.0396,-7.0429,-7.048,-7.056,-7.0621,-7.0632,-7.069,-7.0735,-7.072,-7.0751,-7.0747,-7.0751,-7.0575,-7.055,-7.0763,-7.0763,-7.0763,-7.0762,-7.0762,-7.0762,-7.0203,-7.0307,-7.0306,-7.0422,-7.0441,-7.0519,-7.0547,-7.0581,-7.0608,-7.0699,-7.0751,-7.0758,-7.0782,-7.0841,-7.0895,-7.0896,-7.0919,-7.0957,-7.0952,-7.0787,-7.0764,-7.0742,-7.0718,-7.0962,-7.0963,-7.1123,-7.1124,-7.1125]}]]